Flag for U.S.A. Weather past 2 weeks in Boston, Massachusetts, U.S.A.

Now
64 °F

Passing clouds.


Feels Like: 64 °F
Forecast: 61 / 70 °F
Wind: 10 mph from Northwest

Location: Logan International Airport

Current Time: Aug 29, 2014 at 8:19:03 AM

Latest Report: Aug 29, 2014 at 7:54 AM


Visibility: 10 mi

Pressure: 30.12 "Hg

Humidity: 63%

Dew point: 51 °F

Location of BostonLocation

Historic Weather in Boston — Graph

°F

Boston temperature yesterday

Maximum temperature yesterday: 81 °F (at 3:54 PM)
Minimum temperature yesterday: 66 °F (at 11:54 PM)
Average temperature yesterday: 74 °F

Past Weeks' High & Low Weather Summary

 TemperatureHumidityPressure
High90 °F (Aug 27, 1:54 PM)94% (Aug 22, 4:54 AM)30.16 "Hg (Aug 22, 4:54 AM)
Low59 °F (Aug 19, 5:54 AM)31% (Aug 28, 5:54 PM)29.73 "Hg (Aug 14, 6:54 AM)
Average70 °F65%29.98 "Hg
* Reported Aug 14 6:54 AM — Aug 29 6:54 AM, Boston, Weather by CustomWeather, © 2014

Note: Actual official high and low records may vary slightly from our data, if they occured in-between our weather recording intervals... More about our weather records

Advertising

Boston weather history for previous 24 hours

 ConditionsComfort  
Time TempWeatherWind HumidityBarometerVisibility
6:54 AM
Aug 29
61 °FPassing clouds.12 mph67%30.10 "Hg10 mi
5:54 AM60 °FPassing clouds.10 mph69%30.08 "Hg10 mi
4:54 AM60 °FPassing clouds.9 mph69%30.05 "Hg10 mi
3:54 AM61 °FPassing clouds.7 mph65%30.04 "Hg10 mi
2:54 AM62 °FPassing clouds.9 mph62%30.03 "Hg10 mi
1:54 AM63 °FPassing clouds.12 mph58%30.01 "Hg10 mi
12:54 AM64 °FPassing clouds.13 mph56%30.00 "Hg10 mi
11:54 PM
Aug 28
66 °FPassing clouds.10 mph50%29.98 "Hg10 mi
10:54 PM67 °FPassing clouds.13 mph49%29.97 "Hg10 mi
9:54 PM69 °FPassing clouds.10 mph45%29.95 "Hg10 mi
8:54 PM71 °FPassing clouds.13 mph41%29.93 "Hg10 mi
7:54 PM73 °FScattered clouds.14 mph36%29.90 "Hg10 mi
6:54 PM75 °FScattered clouds.15 mph34%29.87 "Hg10 mi
5:54 PM78 °FScattered clouds.17 mph31%29.84 "Hg10 mi
4:54 PM80 °FPartly sunny.12 mph32%29.82 "Hg10 mi
3:54 PM81 °FPartly sunny.15 mph33%29.80 "Hg10 mi
2:54 PM78 °FPartly sunny.16 mph40%29.79 "Hg10 mi
1:54 PM80 °FScattered clouds.17 mph38%29.79 "Hg10 mi
12:54 PM79 °FScattered clouds.17 mph39%29.79 "Hg10 mi
11:54 AM80 °FScattered clouds.13 mph39%29.80 "Hg10 mi
10:54 AM78 °FPassing clouds.13 mph43%29.81 "Hg10 mi
9:54 AM77 °FScattered clouds.9 mph48%29.83 "Hg10 mi
8:54 AM74 °FScattered clouds.15 mph57%29.82 "Hg10 mi
Weather by CustomWeather, © 2014

See weather overviewHow to use our weather pages